[[{"header":{"parameterUnit":"m.s-1","parameterCategory":1,"la1":30.2991,"la2":30.254,"lo1":-89.0895,"lo2":-89.0444,"dy":0.0017,"dx":0.0017,"nx":28,"ny":28,"refTime":"2024-08-19T09:00:00:Z","depth":0,"parameterNumber":2,"parameterNumberName":"U-component_of_WINDS"},"data":[0,0,0,0,0,0,0,0,0,0,0,0,0,0,0,0,0,0,0,0,0,0,0,0,0,0,0,0,0,0,0,0,0,0,0,0,0,0,0,0,0,0,0,0,0,0,0,0,0,0,0,0,0,0,0,0,0,0,-0.3928,-0.3927,0,-0.3833,-0.3832,-0.3831,-0.371,-0.3708,-0.3706,-0.3704,-0.3607,-0.3606,-0.3605,0,0,0,0,0,0,0,0,0,0,0,0,0,-0.4005,-0.4005,-0.3928,-0.3927,-0.3926,-0.3833,-0.3832,-0.383,-0.371,-0.3708,-0.3705,-0.3703,-0.3607,-0.3606,-0.3605,0,0,0,0,0,0,0,0,0,0,0,0,0,-0.3947,-0.4004,-0.3928,-0.3854,-0.3847,-0.3833,-0.3832,-0.383,-0.371,-0.3707,-0.3705,-0.3702,-0.3607,-0.3606,-0.3605,-0.3656,0,0,-0.3601,-0.3601,0,0,0,0,0,0,0,0,-0.3951,-0.3945,-0.3867,-0.386,-0.3851,-0.378,-0.3823,-0.3772,-0.3711,-0.3762,-0.3704,-0.37,-0.3667,-0.3661,-0.3649,-0.3652,-0.3647,-0.3601,-0.3601,-0.36,-0.36,0,0,0,0,0,0,0,-0.3955,-0.3948,-0.389,-0.3866,-0.3856,-0.3826,-0.3814,-0.3813,-0.3732,-0.3758,-0.3749,-0.3739,-0.3662,-0.365,-0.3646,-0.3646,-0.3601,-0.36,-0.36,-0.3599,-0.3686,-0.3688,0,0,0,0,0,0,-0.397,-0.3952,-0.3893,-0.3887,-0.3895,-0.3827,-0.3814,-0.3806,-0.3732,-0.3718,-0.3742,-0.3734,-0.3654,-0.3647,-0.3642,-0.3698,-0.36,-0.3599,-0.3598,-0.3683,-0.3686,-0.3689,0,0,0,0,0,0,-0.3972,-0.3966,-0.3897,-0.3917,-0.3906,-0.3829,-0.382,-0.3805,-0.3794,-0.372,-0.3705,-0.3745,-0.3651,-0.3644,-0.3653,-0.3693,-0.3599,-0.3597,-0.3679,-0.3684,-0.3688,-0.381,0,0,0,0,0,0,-0.3975,-0.3967,-0.3986,-0.3919,-0.3906,-0.3911,-0.3823,-0.3806,-0.3792,-0.3781,-0.3719,-0.3705,-0.3648,-0.3656,-0.3652,-0.3689,-0.3597,-0.3675,-0.3681,-0.3686,-0.3802,-0.3818,-0.3831,0,0,0,0,0,-0.3978,-0.4025,-0.3988,-0.3982,-0.3928,-0.3913,-0.3906,-0.3839,-0.3796,-0.3814,-0.3766,-0.3707,-0.3688,-0.3658,-0.3653,-0.369,-0.3673,-0.3679,-0.3686,-0.3795,-0.3815,-0.3831,0,0,0,0,0,0,-0.4099,-0.4014,-0.3973,-0.3999,-0.3964,-0.3893,-0.3914,-0.3862,-0.3839,-0.383,-0.3748,-0.3735,-0.3755,-0.3723,-0.369,-0.3736,-0.3672,-0.3678,-0.3756,-0.3774,-0.3789,-0.3797,-0.3596,0,0,0,0,0,-0.4129,-0.4125,-0.405,-0.408,-0.4065,-0.3993,-0.3984,-0.3936,-0.3897,-0.3882,-0.3834,-0.3799,-0.3784,-0.3777,-0.376,-0.3795,-0.3781,-0.3818,-0.3833,-0.3846,-0.3853,-0.387,-0.3886,-0.3712,-0.3711,-0.3711,0,0,-0.4191,-0.4144,-0.4146,-0.4104,-0.4071,-0.4069,-0.3982,-0.3982,-0.398,-0.3881,-0.3889,-0.3853,-0.3807,-0.3831,-0.3838,-0.3804,-0.3897,-0.3854,-0.3865,-0.3865,-0.3878,-0.3895,-0.391,-0.3716,-0.3715,-0.3715,0,0,-0.4302,-0.4265,-0.4287,-0.4256,-0.4207,-0.4159,-0.4164,-0.41,-0.4073,-0.4078,-0.4004,-0.3999,-0.3977,-0.3948,-0.393,-0.4029,-0.3974,-0.4025,-0.4104,-0.4121,-0.4135,-0.4147,-0.4183,-0.4197,-0.4032,-0.4032,-0.4032,0,-0.4385,-0.4378,-0.4304,-0.431,-0.4294,-0.4204,-0.4225,-0.4198,-0.4147,-0.4138,-0.41,-0.407,-0.4033,-0.4048,-0.4072,-0.406,-0.4064,-0.4033,-0.4139,-0.415,-0.416,-0.4194,-0.4208,-0.4039,-0.4038,-0.4037,-0.4037,0,-0.4483,-0.4479,-0.4502,-0.4455,-0.4441,-0.4454,-0.4382,-0.4377,-0.4329,-0.4285,-0.4291,-0.4243,-0.4215,-0.4214,-0.4168,-0.4223,-0.4204,-0.4154,-0.4088,-0.4184,-0.4215,-0.4227,-0.4048,-0.4046,-0.4044,-0.4042,0,0,-0.467,-0.4581,-0.4591,-0.4569,-0.4508,-0.4504,-0.4512,-0.4484,-0.4482,-0.4449,-0.4455,-0.4437,-0.439,-0.437,-0.4319,-0.4334,-0.4417,-0.4281,-0.4279,-0.431,-0.4476,-0.4516,-0.4533,-0.4379,-0.4381,-0.4383,-0.4481,0,-0.4772,-0.4783,-0.4716,-0.4745,-0.474,-0.4654,-0.4662,-0.4626,-0.4584,-0.4574,-0.4527,-0.4517,-0.4454,-0.4442,-0.4453,-0.4405,-0.4449,-0.4396,-0.4385,-0.4385,-0.4402,-0.4548,-0.4591,-0.4685,-0.4492,-0.4494,-0.4495,0,-0.4892,-0.4866,-0.4895,-0.4832,-0.4828,-0.4836,-0.4805,-0.4797,-0.4753,-0.4722,-0.4699,-0.464,-0.4644,-0.458,-0.4585,-0.4551,-0.4541,-0.4517,-0.4519,-0.4517,-0.4448,-0.4553,-0.4714,-0.4729,-0.4513,-0.4512,-0.451,0,-0.5028,-0.5,-0.5013,-0.4996,-0.4923,-0.4931,-0.4901,-0.4855,-0.4843,-0.4815,-0.4806,-0.4779,-0.4766,-0.4746,-0.4682,-0.4641,-0.4695,-0.4625,-0.4669,-0.4671,-0.4687,-0.4687,-0.4851,-0.4678,-0.4677,-0.4677,-0.4677,0,-0.515,-0.5171,-0.5073,-0.5082,-0.5103,-0.5025,-0.5048,-0.501,-0.4969,-0.4969,-0.4891,-0.4892,-0.4806,-0.4797,-0.4746,-0.4759,-0.4753,-0.4728,-0.4715,-0.4736,-0.474,-0.4731,-0.4724,-0.4681,-0.468,-0.4679,-0.4679,0,-0.5307,-0.5242,-0.5251,-0.5181,-0.5164,-0.5183,-0.5122,-0.5127,-0.508,-0.508,-0.5076,-0.5002,-0.4988,-0.492,-0.489,-0.4856,-0.4887,-0.4859,-0.4902,-0.4894,-0.4943,-0.494,-0.5109,-0.5127,-0.4941,-0.4942,-0.4944,0,-0.539,-0.5404,-0.5336,-0.533,-0.5303,-0.5295,-0.5281,-0.5205,-0.5194,-0.5145,-0.5157,-0.5136,-0.5116,-0.5097,-0.5041,-0.5017,-0.4989,-0.505,-0.4985,-0.5007,-0.4992,-0.4993,-0.4995,-0.5065,-0.5067,-0.5069,-0.5071,0,-0.5545,-0.5512,-0.5496,-0.5468,-0.5455,-0.5429,-0.5399,-0.5399,-0.5314,-0.5306,-0.529,-0.5275,-0.5243,-0.5225,-0.5191,-0.516,-0.5102,-0.5091,-0.51,-0.5124,-0.5149,-0.5138,-0.4942,-0.5088,-0.5087,-0.5085,-0.5084,-0.5084,-0.5668,-0.5677,-0.5631,-0.5615,-0.5584,-0.5558,-0.5559,-0.5512,-0.5497,-0.5467,-0.5422,-0.5413,-0.5368,-0.5317,-0.5291,-0.5282,-0.5249,-0.5262,-0.5266,-0.5271,-0.5283,-0.5149,-0.5276,-0.5275,-0.5274,-0.5274,-0.5273,0,-0.5821,-0.5786,-0.5773,-0.5733,-0.5721,-0.5666,-0.5629,-0.5623,-0.5616,-0.5579,-0.5561,-0.5543,-0.5524,-0.5466,-0.5441,-0.5445,-0.5418,-0.5441,-0.5442,-0.5436,-0.5313,-0.5308,-0.5464,-0.5464,-0.5464,-0.5464,-0.5464,-0.5464,-0.5899,-0.5912,-0.5873,-0.5869,-0.5834,-0.5824,-0.5809,-0.5784,-0.5754,-0.5738,-0.5722,-0.5683,-0.5638,-0.5609,-0.5589,-0.5572,-0.5567,-0.56,-0.5575,-0.5462,-0.5444,-0.5427,-0.5422,-0.5599,-0.5599,-0.5698,-0.5699,-0.57]},{"header":{"parameterUnit":"m.s-1","parameterCategory":1,"la1":30.2991,"la2":30.254,"lo1":-89.0895,"lo2":-89.0444,"dy":0.0017,"dx":0.0017,"nx":28,"ny":28,"refTime":"2024-08-19T09:00:00:Z","depth":0,"parameterNumber":3,"parameterNumberName":"V-component_of_WINDS"},"data":[0,0,0,0,0,0,0,0,0,0,0,0,0,0,0,0,0,0,0,0,0,0,0,0,0,0,0,0,0,0,0,0,0,0,0,0,0,0,0,0,0,0,0,0,0,0,0,0,0,0,0,0,0,0,0,0,0,0,-1.4472,-1.4473,0,-1.4478,-1.4478,-1.4478,-1.4511,-1.4512,-1.4513,-1.4513,-1.4516,-1.4515,-1.4514,0,0,0,0,0,0,0,0,0,0,0,0,0,-1.4489,-1.4489,-1.4472,-1.4473,-1.4473,-1.4478,-1.4478,-1.4478,-1.4511,-1.4512,-1.4513,-1.4514,-1.4516,-1.4515,-1.4514,0,0,0,0,0,0,0,0,0,0,0,0,0,-1.4487,-1.4489,-1.4472,-1.449,-1.4491,-1.4478,-1.4478,-1.4478,-1.4511,-1.4512,-1.4513,-1.4514,-1.4516,-1.4515,-1.4514,-1.4483,0,0,-1.4511,-1.4511,0,0,0,0,0,0,0,0,-1.4487,-1.4486,-1.4487,-1.4489,-1.449,-1.4495,-1.4485,-1.4479,-1.451,-1.4503,-1.4513,-1.4515,-1.4508,-1.4507,-1.4506,-1.4483,-1.4483,-1.4511,-1.451,-1.451,-1.451,0,0,0,0,0,0,0,-1.4487,-1.4486,-1.4474,-1.4487,-1.4489,-1.4497,-1.4498,-1.4484,-1.4498,-1.4504,-1.4506,-1.4507,-1.4509,-1.4507,-1.4506,-1.4484,-1.4511,-1.451,-1.4509,-1.4509,-1.4438,-1.4437,0,0,0,0,0,0,-1.4485,-1.4486,-1.4474,-1.4475,-1.4492,-1.4495,-1.4496,-1.4492,-1.4499,-1.4501,-1.4506,-1.4508,-1.4508,-1.4507,-1.4506,-1.4472,-1.451,-1.4509,-1.4508,-1.4439,-1.4438,-1.4436,0,0,0,0,0,0,-1.4485,-1.4484,-1.4474,-1.4481,-1.448,-1.4494,-1.4489,-1.4492,-1.449,-1.45,-1.4503,-1.4501,-1.4509,-1.4508,-1.4489,-1.4472,-1.4508,-1.4507,-1.4441,-1.4439,-1.4437,-1.4402,0,0,0,0,0,0,-1.4486,-1.4484,-1.4473,-1.4481,-1.448,-1.4458,-1.4488,-1.4491,-1.4488,-1.4491,-1.4496,-1.4498,-1.451,-1.4491,-1.4488,-1.4472,-1.4507,-1.4442,-1.444,-1.4437,-1.4405,-1.44,-1.4395,0,0,0,0,0,-1.4486,-1.4462,-1.4472,-1.447,-1.4466,-1.4457,-1.4456,-1.4471,-1.4486,-1.4475,-1.4482,-1.4498,-1.4474,-1.4489,-1.4486,-1.4469,-1.4443,-1.444,-1.4438,-1.4407,-1.4401,-1.4395,0,0,0,0,0,0,-1.445,-1.4463,-1.4474,-1.4452,-1.4453,-1.4462,-1.4449,-1.4463,-1.4459,-1.4462,-1.4479,-1.448,-1.4459,-1.4462,-1.4478,-1.444,-1.4462,-1.4458,-1.4439,-1.4433,-1.4428,-1.4428,-1.4506,0,0,0,0,0,-1.444,-1.4431,-1.4443,-1.4422,-1.4422,-1.4435,-1.4431,-1.4442,-1.4444,-1.4444,-1.445,-1.445,-1.4443,-1.4438,-1.4432,-1.4405,-1.4407,-1.4392,-1.4387,-1.4383,-1.438,-1.4367,-1.4361,-1.4427,-1.4427,-1.4427,0,0,-1.4418,-1.4424,-1.4417,-1.4415,-1.4417,-1.4408,-1.4435,-1.4424,-1.4418,-1.4442,-1.4427,-1.443,-1.4432,-1.441,-1.44,-1.4411,-1.4362,-1.4379,-1.4375,-1.4375,-1.4364,-1.4358,-1.4352,-1.4425,-1.4425,-1.4426,0,0,-1.4374,-1.4377,-1.4361,-1.4363,-1.4366,-1.4375,-1.4371,-1.4379,-1.4383,-1.4367,-1.4386,-1.4378,-1.4365,-1.4366,-1.4364,-1.4321,-1.4336,-1.4318,-1.4292,-1.4279,-1.4274,-1.427,-1.4256,-1.4251,-1.4315,-1.4315,-1.4315,0,-1.4346,-1.4334,-1.435,-1.4339,-1.4337,-1.436,-1.4344,-1.4345,-1.4345,-1.4344,-1.4356,-1.4341,-1.4344,-1.4323,-1.4313,-1.431,-1.4307,-1.4318,-1.4274,-1.427,-1.4266,-1.4253,-1.4247,-1.4313,-1.4313,-1.4313,-1.4314,0,-1.43,-1.4292,-1.4278,-1.428,-1.4277,-1.4263,-1.4277,-1.4271,-1.4282,-1.429,-1.4274,-1.4278,-1.4273,-1.4269,-1.4279,-1.425,-1.4257,-1.4271,-1.4293,-1.4257,-1.4245,-1.424,-1.431,-1.4311,-1.4311,-1.4312,0,0,-1.4235,-1.4246,-1.4241,-1.4243,-1.4249,-1.4242,-1.4229,-1.4226,-1.4222,-1.4221,-1.4211,-1.42,-1.4214,-1.4212,-1.4222,-1.4211,-1.4179,-1.4227,-1.4228,-1.422,-1.4149,-1.4139,-1.4133,-1.4188,-1.4187,-1.4187,-1.4149,0,-1.4194,-1.4174,-1.4188,-1.4166,-1.4158,-1.418,-1.4169,-1.4171,-1.4177,-1.4172,-1.4178,-1.4171,-1.4189,-1.4188,-1.4178,-1.4185,-1.4165,-1.4188,-1.418,-1.4179,-1.4181,-1.4127,-1.4116,-1.4081,-1.4145,-1.4144,-1.4143,0,-1.4144,-1.4144,-1.4121,-1.4129,-1.4127,-1.4116,-1.4116,-1.4109,-1.4112,-1.4118,-1.4116,-1.413,-1.4117,-1.4138,-1.4122,-1.4137,-1.4134,-1.4137,-1.4136,-1.4137,-1.416,-1.4128,-1.407,-1.4065,-1.4136,-1.4136,-1.4137,0,-1.4101,-1.4094,-1.408,-1.408,-1.4089,-1.4082,-1.4085,-1.4089,-1.4087,-1.4085,-1.4084,-1.408,-1.4079,-1.4076,-1.4088,-1.4101,-1.407,-1.4091,-1.4075,-1.4074,-1.4068,-1.4069,-1.4011,-1.4063,-1.4064,-1.4064,-1.4064,0,-1.4056,-1.4041,-1.4061,-1.4052,-1.4036,-1.4053,-1.4036,-1.4042,-1.4045,-1.4038,-1.4055,-1.4048,-1.4063,-1.4057,-1.4066,-1.4052,-1.405,-1.4055,-1.4058,-1.4054,-1.4054,-1.4054,-1.4057,-1.4062,-1.4063,-1.4063,-1.4063,0,-1.4005,-1.4018,-1.4004,-1.4014,-1.4016,-1.4005,-1.4013,-1.4005,-1.4013,-1.4003,-1.4002,-1.4014,-1.4008,-1.4019,-1.4014,-1.402,-1.4001,-1.4006,-1.4,-1.4003,-1.3986,-1.3988,-1.3927,-1.3921,-1.3976,-1.3975,-1.3975,0,-1.3977,-1.3966,-1.3976,-1.3973,-1.3975,-1.3969,-1.3968,-1.3983,-1.398,-1.3983,-1.3975,-1.397,-1.3968,-1.3957,-1.3965,-1.3961,-1.3968,-1.3947,-1.3967,-1.3965,-1.397,-1.3971,-1.3971,-1.3943,-1.3942,-1.3942,-1.3941,0,-1.3925,-1.3932,-1.3929,-1.3928,-1.3926,-1.3926,-1.3927,-1.3923,-1.3939,-1.3935,-1.393,-1.3928,-1.3923,-1.3919,-1.3917,-1.392,-1.3933,-1.3935,-1.3931,-1.3928,-1.3926,-1.3929,-1.3991,-1.3936,-1.3937,-1.3937,-1.3937,-1.3938,-1.3886,-1.3878,-1.3884,-1.388,-1.3883,-1.3884,-1.3878,-1.3885,-1.3881,-1.388,-1.3888,-1.3881,-1.3884,-1.3884,-1.3885,-1.388,-1.3889,-1.3883,-1.3882,-1.3881,-1.3879,-1.3925,-1.3879,-1.3879,-1.3879,-1.3879,-1.388,0,-1.3836,-1.3841,-1.3838,-1.384,-1.3837,-1.385,-1.3852,-1.3849,-1.3843,-1.3845,-1.3843,-1.3837,-1.3833,-1.384,-1.3838,-1.3832,-1.3838,-1.3831,-1.3832,-1.3833,-1.387,-1.3874,-1.3826,-1.3826,-1.3826,-1.3826,-1.3826,-1.3826,-1.381,-1.3799,-1.3806,-1.3796,-1.3801,-1.3795,-1.3795,-1.3796,-1.3798,-1.3792,-1.3789,-1.3794,-1.3799,-1.3796,-1.3793,-1.3796,-1.3794,-1.3785,-1.379,-1.3825,-1.383,-1.3835,-1.3839,-1.3784,-1.3784,-1.3753,-1.3753,-1.3753]}]]